Kuchera_Ratio
0.0 0.0 0.0 0.0 0.0 0.0 0.0 0.0 4.4 0.0 0.0 2.5 4.2 6.8 2.5 0.0 0.0 0.0 0.0 0.0 2.0 4.4 3.2 6.1 5.9 6.1 2.0 0.0 0.0 3.5 0.0 4.5 10.8 8.3 0.0 0.0 0.0 3.2 3.3 12.6 13.4 9.7 10.7 10.5
0.0 0.0 0.0 0.0 0.0 0.0 0.0 2.7 0.0 0.0 0.0 9.5 7.3 1.2 2.4 0.0 0.0 0.1 0.0 1.7 0.0 0.0 3.7 7.5 0.6 0.0 0.0 0.0 0.0 4.1 0.0 6.3 13.9 13.3 6.1 1.4 3.9 1.1 0.0 1.6 4.7 12.3 13.8 8.2
0.0 0.0 0.0 0.0 0.0 0.0 0.0 2.7 6.8 1.3 0.0 0.0 2.6 3.7 4.1 3.2 0.0 0.0 0.0 0.7 0.0 1.9 3.6 0.0 3.3 0.7 0.0 0.0 0.0 0.0 0.0 4.7 11.5 14.1 10.4 3.5 9.0 4.8 1.1 5.4 11.7 8.5 8.5 4.3
0.0 0.0 0.0 0.0 0.0 0.0 0.0 0.0 3.0 0.0 7.9 3.6 0.9 0.0 1.2 3.8 2.6 0.0 0.0 2.7 1.6 3.0 7.6 3.6 3.4 0.0 0.0 0.0 0.0 0.0 0.0 8.3 5.7 3.5 2.3 1.9 3.8 3.6 4.0 8.3 6.1 10.3 2.1 1.4
0.0 0.0 0.0 0.0 0.0 0.0 0.0 3.3 1.4 0.0 0.6 0.0 0.3 1.4 2.8 3.3 2.6 1.4 3.1 3.5 0.0 0.4 4.7 1.9 3.7 0.0 1.0 0.0 0.0 0.0 0.0 6.6 4.3 6.6 0.0 0.0 6.7 3.0 2.8 3.0 2.9 4.4 4.2 4.1
0.0 0.0 0.0 0.0 0.0 0.0 0.0 0.0 0.0 0.0 0.0 0.9 2.2 2.1 2.4 1.0 0.0 0.0 0.0 0.0 1.1 2.7 0.0 0.0 0.0 0.0 0.0 0.0 0.0 4.1 2.9 5.2 6.8 11.1 1.2 3.9 8.2 2.7 0.7 0.1 0.0 0.9 5.8 0.0
0.0 0.0 0.0 0.0 0.0 0.0 0.0 0.0 0.0 1.8 3.6 1.6 1.5 0.0 0.0 0.0 0.0 0.7 0.0 0.0 0.0 0.0 0.0 0.0 0.0 0.0 0.0 0.0 0.0 0.0 1.7 5.6 3.7 8.3 5.8 12.3 0.0 0.0 0.0 0.0 0.0 0.0 0.0 0.0
0.0 0.0 0.0 0.0 0.0 0.0 0.0 0.0 0.0 0.0 2.4 0.0 0.0 0.0 0.0 0.0 0.0 0.0 0.0 0.0 0.0 0.0 0.0 2.7 5.8 5.5 4.9 2.8 0.4 0.0 0.0 2.4 5.9 9.0 9.0 2.5 0.0 0.0 0.0 0.0 0.0 0.0 0.0 0.0
0.0 0.0 0.0 0.0 0.0 0.0 0.0 0.0 0.0 0.0 0.0 0.2 0.0 0.0 0.0 0.0 0.0 0.0 0.0 0.0 0.0 0.0 0.0 4.8 11.7 14.1 9.1 10.4 7.4 1.0 2.4 0.0 4.3 7.3 11.3 13.0 0.0 0.0 0.0 0.0 1.1 0.0 0.0 0.0
0.0 0.0 0.0 0.0 0.0 0.0 0.0 0.0 0.0 0.0 0.0 0.0 0.0 0.0 0.0 0.0 0.0 0.0 0.0 0.0 0.0 0.0 3.2 6.7 9.1 9.4 6.1 10.8 8.8 6.7 7.2 5.3 8.1 6.5 8.2 4.3 0.0 0.0 0.0 3.9 0.0 0.0 0.0 0.0
0.0 0.0 0.0 0.0 0.0 0.0 0.0 0.0 0.0 0.0 0.0 0.0 0.0 0.0 0.0 0.0 0.0 0.2 0.0 0.1 0.2 0.6 6.3 6.3 6.7 7.3 5.6 5.9 5.1 5.9 7.1 8.2 7.8 6.5 10.0 12.4 0.0 0.0 0.0 0.0 0.0 0.0 0.0 0.0
0.0 0.0 0.0 0.0 0.0 0.0 0.0 0.0 0.0 0.0 0.0 0.0 0.0 0.0 0.0 0.0 0.0 0.0 0.0 0.0 0.0 0.0 2.0 5.2 3.4 6.6 6.7 5.2 10.5 0.6 6.0 2.1 3.4 4.3 2.0 0.0 0.0 0.0 0.0 0.0 0.0 0.0 0.0 0.0
0.0 0.0 0.0 0.0 0.0 0.0 0.0 0.0 0.0 0.0 0.0 0.0 0.0 0.0 0.0 0.0 0.0 0.0 0.0 0.0 0.0 0.0 0.0 0.0 0.0 3.5 2.2 5.9 4.1 4.1 0.0 0.0 0.5 0.0 0.0 0.0 0.0 0.0 0.0 0.0 0.0 0.0 0.0 0.0
0.0 0.0 0.0 0.0 0.0 0.0 0.0 0.0 0.0 0.0 0.0 0.5 0.0 0.0 0.0 0.0 0.0 0.0 0.0 0.0 0.0 0.0 0.0 0.0 0.0 1.4 0.0 3.6 1.7 2.7 0.0 0.0 0.0 0.0 0.0 0.0 0.0 0.0 0.0 0.0 0.0 0.0 0.0 0.0
0.0 0.0 0.0 0.0 0.0 0.0 0.0 0.0 0.0 0.0 0.0 0.0 0.0 0.0 0.0 0.0 0.0 0.0 0.0 0.0 0.0 0.0 0.0 0.0 0.0 0.0 0.0 0.0 0.5 3.3 0.0 0.0 0.2 0.0 0.0 0.0 0.0 0.0 0.0 0.0 0.0 0.0 0.0 0.0
0.0 0.0 0.0 0.0 0.0 0.0 0.0 0.0 0.0 0.0 0.0 0.0 2.2 0.0 0.0 0.0 0.0 0.0 0.0 0.0 0.0 0.0 0.0 0.0 0.0 0.0 0.0 0.8 2.9 0.0 0.0 0.0 0.0 0.0 0.0 0.0 0.0 0.0 0.0 0.0 0.0 0.0 0.0 0.0
0.0 0.0 0.0 0.0 0.0 0.0 0.0 0.0 0.0 0.0 0.0 0.0 1.9 0.4 0.0 0.0 0.0 0.0 0.0 0.0 0.0 0.0 0.0 0.0 0.0 0.0 0.0 0.6 5.1 0.0 0.0 0.0 0.0 0.0 0.0 0.0 0.0 0.0 0.0 0.0 0.0 0.0 0.0 0.0
0.0 0.0 0.0 0.0 0.0 0.0 0.0 0.0 0.0 0.0 0.0 0.0 3.6 3.0 0.0 0.0 0.0 0.0 0.0 0.0 0.0 0.0 0.0 0.0 0.0 0.0 0.0 3.3 0.0 0.0 0.0 0.0 0.0 0.0 0.0 0.0 0.0 0.0 0.0 0.0 0.0 0.0 0.0 0.0
0.0 0.0 0.0 0.0 0.0 0.0 0.0 0.0 0.0 0.0 0.0 0.9 2.3 4.4 6.3 0.0 0.0 0.0 0.0 0.0 0.5 0.0 0.0 0.0 0.0 0.0 4.6 0.0 0.0 0.0 0.0 0.0 0.0 0.0 0.0 0.0 0.0 0.0 0.0 0.0 0.0 0.0 0.0 0.0
0.0 0.0 0.0 1.1 0.0 0.0 0.0 0.0 0.0 0.0 0.0 0.0 1.8 0.0 3.1 0.0 0.0 1.1 0.5 0.8 3.6 7.0 1.4 0.0 2.7 2.0 0.0 0.0 0.0 0.0 0.0 0.0 0.0 0.0 0.0 0.0 0.0 0.0 0.0 0.0 0.0 0.0 0.0 0.0
0.0 0.0 0.0 0.0 0.0 0.0 0.0 0.2 0.0 0.7 4.3 0.0 0.0 0.1 1.2 0.0 2.9 3.0 2.5 5.6 6.1 8.4 6.0 5.3 5.9 6.9 1.3 0.0 0.0 0.0 0.0 0.0 0.0 0.0 0.0 0.0 0.0 0.0 0.0 0.0 0.0 0.0 0.0 0.0
0.0 0.0 0.0 0.0 0.0 2.1 4.1 5.8 5.2 5.0 5.3 1.2 0.7 0.0 0.0 0.6 0.0 4.0 4.5 6.2 6.7 11.3 6.9 7.2 9.5 1.8 0.9 0.4 0.0 0.0 0.0 0.0 0.0 0.0 0.0 0.0 0.0 0.0 0.0 0.0 0.0 0.0 0.0 0.0
0.0 0.0 3.5 1.9 3.5 7.1 7.5 9.9 7.3 7.7 4.2 2.5 2.0 4.7 0.9 0.8 0.5 4.8 6.0 7.7 8.8 5.3 9.9 10.2 2.9 0.7 0.7 0.6 0.0 0.0 0.0 0.0 0.0 0.0 0.0 0.0 0.0 0.0 0.0 0.0 0.0 0.0 0.0 0.5
4.4 7.5 7.6 7.2 8.0 6.6 6.3 6.2 6.9 6.6 6.5 5.0 2.5 4.2 4.4 3.2 4.7 6.2 8.1 8.3 8.5 12.2 11.4 5.4 0.4 0.8 1.4 1.8 1.2 0.3 0.0 0.0 0.0 0.0 0.0 0.0 0.0 0.0 0.0 0.0 0.0 0.0 0.0 1.7
6.8 7.5 10.3 8.0 8.3 7.5 7.7 7.4 6.7 5.7 2.8 4.5 2.3 4.0 2.4 5.0 6.5 9.1 10.0 11.7 11.5 10.2 3.6 1.0 0.4 1.0 2.4 2.5 2.3 1.9 1.1 0.0 0.0 0.0 0.0 0.0 0.0 0.0 0.0 0.0 0.0 0.0 0.0 0.6
7.7 9.7 11.7 10.6 9.5 8.4 7.5 6.7 7.2 3.5 3.0 3.6 2.8 3.5 5.2 5.4 7.9 9.8 8.3 10.6 9.1 0.9 0.0 0.0 0.6 1.2 2.0 2.3 2.6 2.9 2.4 1.5 0.5 0.0 0.0 0.0 0.0 0.0 0.0 1.9 1.4 0.0 0.0 1.4
10.3 12.7 9.2 12.2 11.3 10.5 9.2 7.7 6.0 0.6 4.7 6.8 5.7 8.9 7.2 9.2 9.6 9.1 7.2 3.9 0.0 0.0 0.0 0.0 0.0 0.9 2.0 2.3 2.9 3.4 3.3 3.1 2.4 1.6 1.8 1.2 1.2 0.7 0.8 1.5 2.4 2.1 2.4 2.3